Date,TemperatureHighF,TemperatureAvgF,TemperatureLowF,DewpointHighF,DewpointAvgF,DewpointLowF,HumidityHigh,HumidityAvg,HumidityLow,PressureMaxIn,PressureMinIn,WindSpeedMaxMPH,WindSpeedAvgMPH,GustSpeedMaxMPH,PrecipitationSumIn
2013-1-1,57.4,50.0,42.0,57.0,47.9,39.0,99,92,82,30.21,29.92,11,5,18,0.12
2013-1-2,42.2,40.0,37.1,39.0,35.0,34.0,89,82,74,30.31,30.20,9,4,13,0.00
2013-1-3,48.6,42.7,37.0,37.0,34.7,33.0,85,74,58,30.42,30.30,13,4,16,0.00
2013-1-4,46.4,44.6,41.9,40.0,37.7,36.0,86,77,69,30.50,30.36,9,4,15,0.01
2013-1-5,46.2,43.4,34.4,45.0,41.3,33.0,95,92,88,30.36,30.24,5,1,8,0.08
2013-1-6,53.6,39.2,30.7,46.0,37.0,30.0,99,92,71,30.37,30.25,9,2,13,0.01
2013-1-7,57.7,43.8,27.4,46.0,38.4,27.0,98,83,60,30.31,30.07,9,2,13,0.00
2013-1-8,63.1,56.0,49.8,63.0,54.6,45.0,99,95,83,30.06,29.82,9,3,14,0.17
2013-1-9,65.3,62.9,59.5,65.0,62.4,59.0,99,98,96,29.99,29.81,15,5,18,1.25
2013-1-10,65.9,57.5,49.8,58.0,50.9,47.0,98,81,52,30.05,29.93,8,2,13,0.33
2013-1-11,72.7,58.8,41.4,65.0,56.2,40.0,98,91,75,30.01,29.81,13,4,18,0.07
2013-1-12,74.4,69.5,48.3,71.0,67.5,46.0,99,93,83,29.81,29.62,18,8,26,0.03
2013-1-13,49.5,43.9,38.9,45.0,37.7,34.0,94,79,65,30.14,29.80,13,6,21,0.06
2013-1-14,46.3,41.3,35.8,38.0,35.0,31.0,85,78,71,30.23,30.10,12,6,18,0.03
2013-1-15,42.4,37.2,35.9,38.0,35.5,35.0,96,93,83,30.19,30.05,12,5,18,0.02
2013-1-16,49.6,38.9,27.7,34.0,28.2,20.0,94,69,35,30.32,30.18,12,3,19,0.08
2013-1-17,62.7,44.3,27.8,40.0,33.5,26.0,95,70,40,30.46,30.27,11,2,16,0.05
2013-1-18,62.7,46.8,30.8,41.0,36.6,30.0,96,72,39,30.51,30.31,8,2,13,0.00
2013-1-19,68.3,53.4,39.3,49.0,43.9,36.0,94,72,46,30.34,30.13,8,2,14,0.00
2013-1-20,70.7,54.5,38.8,56.0,47.3,38.0,98,79,49,30.25,30.06,8,1,12,0.01
2013-1-21,71.2,56.0,42.6,58.0,49.0,42.0,98,80,51,30.23,30.11,9,1,11,0.00
2013-1-22,71.6,56.4,40.1,55.0,48.6,39.0,97,77,53,30.29,30.15,11,2,17,0.00
2013-1-23,73.0,60.5,46.5,61.0,55.2,46.0,98,84,61,30.31,30.17,11,3,15,0.01
2013-1-24,79.2,67.6,60.2,66.0,62.4,59.0,97,85,60,30.23,30.06,12,6,20,0.00
2013-1-25,78.6,68.7,60.5,65.0,62.7,59.0,96,82,61,30.12,29.98,12,6,20,0.03
2013-1-26,77.3,64.6,54.3,65.0,59.1,54.0,98,83,55,30.16,30.01,14,3,16,0.01
2013-1-27,77.2,67.9,58.8,68.0,64.0,57.0,98,87,70,30.08,29.95,19,7,22,0.01
2013-1-28,79.7,72.5,69.5,68.0,67.0,65.0,92,83,62,30.02,29.87,18,9,26,0.00
2013-1-29,78.4,70.6,59.2,70.0,66.1,50.0,95,86,66,29.86,29.49,22,10,34,0.07
2013-1-30,61.0,51.1,32.8,45.0,30.4,25.0,90,48,29,30.21,29.75,19,4,25,0.00
2013-1-31,66.7,48.2,28.2,38.0,29.8,24.0,95,58,20,30.30,30.15,15,3,16,0.00
2013-2-1,70.2,56.2,40.9,48.0,41.1,38.0,93,60,33,30.33,30.17,13,3,18,0.00
2013-2-2,75.2,58.8,40.9,58.0,49.6,40.0,97,74,43,30.24,30.10,10,2,14,0.00
2013-2-3,71.1,58.7,41.2,50.0,38.6,27.0,94,53,20,30.30,30.02,11,3,14,0.00
2013-2-4,72.9,62.6,55.0,65.0,57.0,41.0,95,82,55,30.03,29.76,13,2,16,0.06
2013-2-5,75.7,66.8,59.9,65.0,62.4,57.0,97,87,61,29.93,29.82,7,2,12,0.00
2013-2-6,68.3,64.2,59.6,65.0,62.2,58.0,98,93,79,29.98,29.81,11,4,16,0.40
2013-2-7,69.7,62.3,59.2,63.0,59.6,54.0,96,91,78,30.00,29.83,8,2,10,0.00
2013-2-8,68.2,58.0,50.2,54.0,48.8,46.0,88,73,46,30.18,30.00,14,4,16,0.00
2013-2-9,69.6,59.6,49.9,68.0,56.9,48.0,95,91,84,30.09,29.78,19,7,21,0.00
2013-2-10,70.4,63.9,56.8,69.0,55.3,43.0,95,75,46,29.96,29.71,13,4,22,0.30
2013-2-11,57.6,53.3,49.9,52.0,49.8,45.0,97,88,68,30.03,29.92,10,4,16,0.25
2013-2-12,65.1,56.5,52.7,58.0,54.1,48.0,99,92,74,29.99,29.78,15,3,16,0.03
2013-2-13,59.2,49.0,39.8,48.0,40.7,37.0,92,74,53,30.13,29.97,12,4,18,0.00
2013-2-14,67.7,50.3,31.7,46.0,37.2,31.0,97,67,29,30.15,29.98,7,2,13,0.01
2013-2-15,64.5,51.5,37.1,44.0,40.4,34.0,97,68,44,30.35,30.06,12,4,17,0.01
2013-2-16,61.4,47.2,30.2,36.0,31.6,27.0,92,58,32,30.44,30.21,12,2,12,0.00
2013-2-17,70.6,56.4,40.9,53.0,43.4,34.0,92,65,32,30.22,29.97,18,6,22,0.00
2013-2-18,77.1,67.2,58.7,68.0,57.6,39.0,90,73,41,30.05,29.77,18,7,26,0.04
2013-2-19,67.7,56.1,38.9,41.0,37.6,33.0,91,53,29,30.23,30.05,9,3,17,0.00
2013-2-20,61.8,56.0,51.5,60.0,48.0,35.0,98,76,49,30.09,29.70,21,8,27,0.07
2013-2-21,77.6,66.3,49.8,71.0,55.3,41.0,98,72,32,29.83,29.58,17,6,24,0.03
2013-2-22,60.1,53.0,46.7,47.0,43.5,37.0,91,71,57,29.99,29.82,13,5,19,0.01
2013-2-23,66.8,51.9,41.3,48.0,39.5,34.0,86,64,42,30.01,29.84,10,3,14,0.00
2013-2-24,72.4,56.4,36.5,56.0,48.0,35.0,97,75,48,29.91,29.60,13,5,18,0.00
2013-2-25,72.0,59.8,46.9,61.0,42.3,23.0,97,59,17,29.77,29.51,20,7,31,0.03
2013-2-26,64.2,52.2,42.2,40.0,34.8,32.0,70,54,32,29.92,29.78,11,4,26,0.00
2013-2-27,63.1,51.8,39.1,49.0,35.5,27.0,95,57,31,30.18,29.86,14,4,23,0.00
2013-2-28,58.2,47.1,34.4,34.0,30.4,27.0,81,54,35,30.30,30.14,11,3,17,0.00
2013-3-1,65.0,47.2,27.9,36.0,30.2,26.0,95,59,24,30.29,30.10,8,2,15,0.00
2013-3-2,56.8,45.4,32.8,36.0,28.7,22.0,79,56,27,30.39,30.25,14,4,23,0.00
2013-3-3,71.1,51.4,29.0,51.0,36.6,25.0,91,62,30,30.27,29.93,15,6,24,0.00
2013-3-4,84.0,66.6,54.5,61.0,56.2,51.0,92,73,39,29.93,29.67,18,9,26,0.00
2013-3-5,64.6,58.2,46.1,61.0,37.4,23.0,90,51,23,30.31,29.74,16,7,27,0.00
2013-3-6,66.6,50.7,38.5,39.0,27.3,21.0,71,43,19,30.42,30.18,14,3,17,0.00
2013-3-7,73.4,56.0,36.6,53.0,45.6,35.0,96,71,43,30.25,30.07,12,4,18,0.00
2013-3-8,70.0,61.1,52.3,62.0,56.5,48.0,95,85,73,30.14,29.99,16,6,22,0.00
2013-3-9,75.5,67.6,60.7,65.0,62.8,58.0,95,85,69,30.01,29.67,19,8,27,0.00
2013-3-10,67.7,60.7,50.7,66.0,51.0,38.0,96,73,44,30.06,29.64,15,5,19,0.57
2013-3-11,61.9,51.4,39.4,38.0,31.0,22.0,81,50,23,30.14,29.97,15,3,19,0.00
2013-3-12,74.4,52.3,32.1,44.0,35.5,30.0,96,61,24,30.22,30.05,8,2,11,0.00
2013-3-13,73.2,57.5,38.4,47.0,40.8,37.0,96,59,30,30.40,30.22,10,2,13,0.00
2013-3-14,76.7,60.0,39.8,56.0,47.1,38.0,96,66,38,30.37,30.18,12,4,16,0.00
2013-3-15,79.1,64.1,47.4,60.0,52.9,46.0,96,70,40,30.23,29.98,16,5,24,0.00
2013-3-16,81.8,67.4,57.5,63.0,59.5,56.0,96,78,44,29.98,29.73,18,8,26,0.00
2013-3-17,82.1,71.2,63.7,67.0,64.0,61.0,94,79,56,29.79,29.59,15,7,21,0.00
2013-3-18,89.0,74.0,64.3,67.0,62.6,52.0,94,71,39,29.87,29.66,12,5,16,0.00
2013-3-19,83.0,67.7,48.0,66.0,57.4,45.0,93,71,52,29.94,29.78,13,4,17,0.00
2013-3-20,70.5,60.6,50.7,64.0,51.4,41.0,96,75,36,30.18,29.91,19,5,23,0.27
2013-3-21,71.6,60.5,47.4,63.0,54.5,45.0,96,81,60,30.00,29.61,16,5,24,0.00
2013-3-22,83.3,72.7,61.9,71.0,66.5,54.0,94,81,60,29.71,29.58,12,5,20,0.00
2013-3-23,70.3,60.3,54.2,64.0,56.6,53.0,95,87,77,29.72,29.55,9,3,13,0.01
2013-3-24,59.1,52.9,45.8,58.0,38.9,30.0,97,62,37,30.11,29.63,20,6,28,0.00
2013-3-25,58.8,47.1,36.0,32.0,28.1,24.0,77,51,27,30.37,30.14,12,3,18,0.00
2013-3-26,61.7,47.4,28.3,36.0,26.9,24.0,90,49,24,30.48,30.28,8,2,17,0.00
2013-3-27,72.4,52.5,30.7,50.0,38.9,27.0,95,63,35,30.34,30.12,19,4,23,0.00
2013-3-28,72.9,63.4,53.0,61.0,55.7,48.0,88,77,65,30.19,30.09,15,5,20,0.00
2013-3-29,75.6,65.7,56.4,64.0,58.6,55.0,97,79,60,30.16,30.02,12,4,22,0.00
2013-3-30,82.1,71.0,62.8,65.0,62.9,60.0,96,77,51,30.09,29.86,15,5,18,0.00
2013-3-31,82.2,71.1,63.9,68.0,65.2,61.0,91,82,62,29.92,29.79,12,4,18,0.00
2013-4-1,82.3,70.1,59.8,69.0,63.7,58.0,97,82,57,30.01,29.86,11,3,14,0.00
2013-4-2,69.1,65.0,61.0,66.0,63.0,60.0,97,93,87,29.95,29.75,14,4,25,1.59
2013-4-3,61.3,55.9,50.2,60.0,54.7,49.0,97,96,90,30.08,29.73,11,4,16,0.31
2013-4-4,54.2,50.7,48.3,49.0,46.5,44.0,97,86,74,30.19,30.04,12,4,18,0.01
2013-4-5,70.3,56.2,41.3,54.0,47.5,40.0,95,75,51,30.25,30.04,8,2,11,0.00
2013-4-6,74.1,63.4,52.3,61.0,56.6,50.0,95,80,62,30.06,29.86,18,6,21,0.00
2013-4-7,79.6,69.6,59.8,65.0,62.1,58.0,96,78,59,29.91,29.75,17,7,25,0.00
2013-4-8,81.4,72.6,66.4,68.0,65.7,63.0,94,80,58,29.80,29.65,19,9,27,0.00
2013-4-9,84.8,74.5,66.3,71.0,68.6,65.0,95,82,60,29.70,29.56,19,9,29,0.00
2013-4-10,74.6,61.0,45.9,71.0,58.4,43.0,95,91,76,29.88,29.62,15,7,24,0.19
2013-4-11,66.2,53.3,43.6,47.0,41.8,36.0,90,67,43,29.93,29.76,13,4,18,0.00
2013-4-12,78.9,59.3,40.2,53.0,45.4,39.0,98,67,29,29.98,29.81,8,2,12,0.00
2013-4-13,78.0,62.7,45.5,60.0,53.3,44.0,97,74,41,29.94,29.74,11,3,16,0.00
2013-4-14,84.8,67.9,53.0,70.0,62.7,52.0,98,85,58,29.78,29.56,12,4,17,0.00
2013-4-15,82.4,74.5,69.6,72.0,69.2,67.0,93,84,68,29.78,29.66,13,6,20,0.00
2013-4-16,85.1,75.5,68.8,72.0,70.2,67.0,96,84,63,29.86,29.76,15,6,24,0.00
2013-4-17,81.6,75.2,72.7,74.0,72.1,70.0,96,90,73,29.85,29.65,15,7,22,0.00
2013-4-18,73.7,62.6,51.1,72.0,58.9,43.0,98,88,71,30.04,29.62,13,6,22,0.29
2013-4-19,64.8,53.2,41.3,43.0,37.5,32.0,86,59,31,30.25,30.04,13,4,19,0.00
2013-4-20,70.5,54.5,35.2,47.0,40.3,33.0,95,64,32,30.22,29.99,13,4,17,0.00
2013-4-21,74.0,61.2,46.2,59.0,52.8,44.0,94,75,56,30.12,29.98,11,3,14,0.00
2013-4-22,81.8,66.6,47.8,65.0,58.5,47.0,98,77,54,30.09,29.84,12,4,17,0.00
2013-4-23,81.2,68.3,53.1,69.0,62.6,47.0,95,83,63,30.02,29.80,13,5,18,0.00
2013-4-24,65.3,54.6,44.5,48.0,44.9,41.0,93,72,48,30.21,30.03,14,6,25,0.04
2013-4-25,72.4,63.2,55.5,55.0,48.8,46.0,74,61,40,30.27,30.12,11,4,16,0.00
2013-4-26,82.9,72.6,64.7,70.0,65.8,55.0,97,80,62,30.15,29.98,14,7,21,0.00
2013-4-27,81.0,71.0,65.3,73.0,68.2,63.0,96,91,74,30.04,29.90,9,2,16,0.08
2013-4-28,82.4,70.9,61.0,66.0,64.0,60.0,98,80,55,29.99,29.82,10,3,15,0.08
2013-4-29,82.7,69.5,61.8,69.0,65.0,60.0,98,87,58,29.89,29.76,11,2,26,0.03
2013-4-30,83.9,72.7,63.1,69.0,66.4,62.0,98,82,56,29.80,29.66,8,2,11,0.00
2013-5-1,87.0,75.2,67.5,70.0,67.1,65.0,96,78,50,29.85,29.73,10,2,17,0.00
2013-5-2,69.2,60.1,47.1,67.0,55.0,41.0,94,83,69,30.24,29.85,17,6,25,0.00
2013-5-3,66.9,54.1,42.4,41.0,34.9,29.0,79,52,25,30.25,30.03,18,6,27,0.00
2013-5-4,82.3,60.2,34.6,46.0,39.4,33.0,96,54,22,30.06,29.80,13,3,20,0.00
2013-5-5,71.6,60.1,49.9,48.0,44.6,39.0,83,59,40,30.09,29.93,12,3,16,0.00
2013-5-6,76.2,60.9,42.7,54.0,48.6,41.0,97,68,42,30.10,29.92,10,1,10,0.00
2013-5-7,85.2,68.2,47.0,59.0,53.8,46.0,97,65,36,30.04,29.89,9,2,20,0.00
2013-5-8,84.9,72.2,58.3,67.0,61.7,57.0,97,72,44,29.99,29.85,14,5,23,0.00
2013-5-9,80.0,73.2,67.5,73.0,69.6,64.0,96,88,76,29.92,29.78,13,4,22,0.01
2013-5-10,80.2,72.0,65.2,71.0,66.9,62.0,98,85,64,30.01,29.75,14,4,22,0.83
2013-5-11,81.5,71.2,61.8,70.0,61.9,55.0,97,75,45,30.06,29.92,13,3,19,0.00
2013-5-12,80.2,68.7,58.2,60.0,55.9,53.0,89,66,41,30.16,30.04,9,2,11,0.00
2013-5-13,83.6,69.4,50.5,61.0,56.6,49.0,97,67,39,30.23,30.10,7,2,12,0.00
2013-5-14,84.1,72.0,59.3,69.0,64.0,58.0,98,78,54,30.17,29.99,13,4,22,0.00
2013-5-15,79.3,72.3,68.4,73.0,68.9,66.0,97,89,75,30.07,29.82,14,6,23,0.18
2013-5-16,85.1,75.9,68.4,74.0,71.0,68.0,97,85,69,29.88,29.70,17,7,22,0.04
2013-5-17,88.9,79.0,72.7,76.0,72.2,68.0,95,80,65,29.85,29.75,17,6,21,0.00
2013-5-18,91.6,80.6,72.6,75.0,71.4,68.0,93,75,50,29.87,29.78,17,7,23,0.00
2013-5-19,89.9,80.0,73.4,74.0,71.3,68.0,92,76,52,29.81,29.69,16,8,22,0.00
2013-5-20,90.1,80.7,73.6,76.0,72.7,71.0,92,77,59,29.80,29.65,15,7,27,0.00
2013-5-21,88.4,79.6,69.5,74.0,72.9,67.0,95,81,62,29.79,29.62,15,6,22,0.02
2013-5-22,91.1,76.5,65.2,77.0,70.5,64.0,98,83,57,29.85,29.74,8,2,11,0.07
2013-5-23,90.9,80.3,73.3,76.0,73.2,71.0,95,80,57,29.98,29.81,15,4,17,0.00
2013-5-24,88.7,80.0,74.4,75.0,73.1,71.0,95,80,58,30.05,29.94,16,5,18,0.00
2013-5-25,80.5,76.4,73.5,76.0,73.0,72.0,96,89,77,30.09,29.97,11,3,15,0.01
2013-5-26,89.2,79.8,73.2,74.0,71.3,69.0,96,77,52,30.04,29.91,14,5,19,0.00
2013-5-27,91.7,79.6,70.5,74.0,70.2,68.0,97,75,47,29.97,29.80,15,6,22,0.00
2013-5-28,90.6,79.2,70.6,73.0,71.0,69.0,96,78,53,29.88,29.74,20,7,27,0.00
2013-5-29,87.1,78.6,73.0,75.0,72.6,71.0,94,83,64,29.83,29.70,17,7,25,0.01
2013-5-30,91.1,81.1,74.6,76.0,74.0,73.0,94,80,57,29.80,29.69,15,7,24,0.01
2013-5-31,93.8,83.3,76.8,76.0,74.7,73.0,93,77,54,29.82,29.70,17,8,20,0.00
2013-6-1,96.2,84.5,77.5,76.0,74.6,73.0,91,74,49,29.82,29.73,14,6,19,0.00
2013-6-2,84.3,75.7,68.1,75.0,70.5,66.0,98,85,57,29.98,29.82,10,3,17,1.75
2013-6-3,91.8,77.5,62.5,71.0,66.8,62.0,98,73,45,29.92,29.76,7,1,11,0.00
2013-6-4,90.8,79.5,65.9,74.0,70.4,65.0,98,76,52,29.86,29.73,11,3,14,0.00
2013-6-5,91.5,80.8,69.4,77.0,72.3,68.0,98,77,49,29.83,29.66,10,3,12,0.00
2013-6-6,94.2,81.5,71.1,77.0,72.2,68.0,97,76,45,29.84,29.66,17,2,22,0.00
2013-6-7,86.4,75.3,65.1,70.0,64.7,58.0,97,72,40,29.90,29.79,9,2,15,0.00
2013-6-8,90.7,77.4,60.6,73.0,67.5,59.0,95,73,51,29.88,29.73,11,3,18,0.00
2013-6-9,84.0,76.5,71.4,77.0,73.0,70.0,97,89,74,29.90,29.79,9,2,15,0.46
2013-6-10,93.9,80.6,67.0,77.0,72.3,66.0,98,78,48,29.92,29.83,11,2,20,0.00
2013-6-11,90.4,79.9,73.5,79.0,74.8,72.0,97,85,63,29.97,29.90,17,2,24,0.02
2013-6-12,93.2,81.9,74.3,78.0,75.2,72.0,98,81,58,29.99,29.89,9,3,13,0.00
2013-6-13,95.4,83.0,73.4,79.0,74.9,72.0,97,78,50,30.00,29.84,9,2,14,0.00
2013-6-14,95.3,83.4,73.4,79.0,74.2,69.0,98,76,44,29.92,29.80,8,2,11,0.00
2013-6-15,94.8,83.5,74.9,79.0,73.4,69.0,96,74,48,29.93,29.81,9,2,13,0.00
2013-6-16,96.8,84.6,72.6,77.0,73.8,70.0,96,72,42,29.95,29.82,11,4,14,0.00
2013-6-17,97.6,84.8,74.4,77.0,74.1,69.0,97,73,39,29.93,29.78,11,4,16,0.00
2013-6-18,94.6,83.2,75.7,76.0,73.6,70.0,95,75,45,29.93,29.80,11,4,13,0.00
2013-6-19,96.4,85.3,74.9,77.0,72.8,67.0,95,69,39,29.91,29.82,11,4,16,0.00
2013-6-20,97.1,85.0,73.5,77.0,72.4,65.0,96,69,35,29.99,29.89,10,4,17,0.00
2013-6-21,96.8,84.6,73.9,77.0,72.0,66.0,97,69,38,30.01,29.90,12,4,17,0.00
2013-6-22,97.0,84.8,74.6,78.0,73.7,70.0,96,72,43,29.99,29.84,16,5,20,0.00
2013-6-23,95.5,83.6,73.4,77.0,72.5,69.0,96,72,46,29.94,29.84,12,4,22,0.00
2013-6-24,97.1,84.4,73.5,77.0,72.4,67.0,96,71,38,29.98,29.85,14,5,21,0.00
2013-6-25,97.5,85.3,75.2,78.0,72.5,66.0,96,69,40,29.95,29.83,14,6,21,0.00
2013-6-26,100.1,86.3,75.6,77.0,73.1,68.0,95,69,36,29.93,29.81,12,5,17,0.00
2013-6-27,100.7,85.8,73.7,76.0,71.5,64.0,97,67,31,29.97,29.81,12,4,14,0.00
2013-6-28,103.3,88.5,76.3,75.0,70.9,63.0,94,61,28,29.92,29.71,9,3,15,0.00
2013-6-29,103.9,90.3,75.2,74.0,68.3,61.0,87,52,27,29.78,29.63,12,3,16,0.00
2013-6-30,97.6,88.4,76.7,69.0,63.0,58.0,74,44,32,29.82,29.70,11,2,14,0.00
2013-7-1,89.5,81.3,69.8,61.0,58.4,57.0,69,47,34,29.90,29.79,12,3,18,0.00
2013-7-2,93.4,79.1,62.8,63.0,57.3,51.0,85,52,26,29.97,29.86,9,2,16,0.00
2013-7-3,97.1,80.9,63.2,70.0,60.0,54.0,86,54,24,29.95,29.80,8,2,15,0.04
2013-7-4,95.6,81.5,66.9,74.0,67.4,61.0,96,66,32,29.94,29.80,10,2,17,0.00
2013-7-5,96.6,83.2,65.7,73.0,66.4,61.0,95,61,32,29.92,29.77,13,3,17,0.00
2013-7-6,96.9,81.9,69.1,75.0,69.7,64.0,94,69,35,29.87,29.74,14,3,18,0.00
2013-7-7,95.6,83.2,72.1,77.0,73.1,70.0,95,74,46,29.93,29.82,17,4,25,0.00
2013-7-8,91.7,80.4,75.1,75.0,73.4,70.0,96,81,53,30.07,29.93,9,4,15,0.16
2013-7-9,98.6,85.2,73.9,79.0,73.9,70.0,97,72,41,30.08,29.93,12,4,16,0.00
2013-7-10,99.0,85.7,72.9,78.0,73.3,69.0,97,69,38,30.03,29.85,14,4,20,0.00
2013-7-11,99.6,85.7,73.9,77.0,71.6,65.0,96,67,34,29.95,29.80,10,4,14,0.00
2013-7-12,99.8,85.8,75.4,76.0,72.7,69.0,95,68,38,29.90,29.78,9,4,17,0.00
2013-7-13,101.3,87.8,72.6,73.0,69.4,63.0,94,59,30,29.91,29.73,8,2,15,0.00
2013-7-14,93.2,80.8,69.6,75.0,70.7,67.0,95,73,45,29.87,29.77,10,3,21,0.76
2013-7-15,86.5,75.8,71.3,77.0,72.4,70.0,96,89,64,29.97,29.84,13,3,18,0.45
2013-7-16,90.8,78.8,73.4,77.0,73.0,71.0,96,84,57,30.06,29.95,17,4,31,0.03
2013-7-17,85.9,78.1,73.8,77.0,73.4,71.0,98,86,66,30.12,30.04,14,4,19,0.04
2013-7-18,93.7,82.0,71.0,77.0,71.8,66.0,98,74,40,30.09,29.91,8,2,15,0.00
2013-7-19,93.8,79.4,69.6,77.0,71.6,68.0,97,79,48,30.00,29.86,11,2,16,0.04
2013-7-20,89.9,78.7,73.0,77.0,73.4,71.0,97,85,56,29.93,29.81,11,2,16,0.04
2013-7-21,91.5,79.1,73.0,79.0,75.2,72.0,98,89,60,29.91,29.83,11,2,26,0.61
2013-7-22,93.7,84.3,78.2,79.0,76.5,73.0,96,79,58,29.94,29.84,11,6,22,0.00
2013-7-23,97.6,84.9,77.7,77.0,74.9,68.0,96,75,39,29.95,29.81,12,6,18,0.00
2013-7-24,93.8,84.3,75.4,77.0,74.8,71.0,96,75,49,29.94,29.80,11,4,18,0.00
2013-7-25,97.8,85.0,74.5,77.0,72.9,65.0,96,71,37,29.96,29.88,8,3,17,0.00
2013-7-26,96.6,85.2,77.6,77.0,75.3,71.0,94,74,46,29.96,29.80,13,5,18,0.00
2013-7-27,88.8,82.2,78.8,77.0,75.2,72.0,89,80,62,29.91,29.78,8,3,16,0.03
2013-7-28,95.3,84.6,74.9,78.0,73.5,71.0,95,72,45,29.89,29.78,12,3,17,0.00
2013-7-29,97.8,84.8,75.8,78.0,72.5,62.0,96,71,35,29.99,29.89,18,6,22,0.00
2013-7-30,99.2,85.0,74.2,77.0,72.1,64.0,97,70,32,30.04,29.91,15,5,21,0.00
2013-7-31,101.3,86.1,73.6,76.0,70.9,65.0,97,66,31,30.03,29.84,11,3,14,0.00
2013-8-1,100.2,86.8,77.5,77.0,73.3,68.0,93,67,36,29.96,29.80,9,4,15,0.00
2013-8-2,100.9,87.1,74.1,77.0,72.2,67.0,94,65,34,29.92,29.79,12,4,15,0.00
2013-8-3,100.5,87.0,74.9,77.0,73.5,69.0,96,68,37,29.96,29.84,11,4,16,0.00
2013-8-4,100.5,87.0,75.7,79.0,74.7,71.0,96,70,39,30.01,29.85,14,4,18,0.00
2013-8-5,102.2,87.1,74.5,78.0,73.8,69.0,96,68,36,29.98,29.81,15,6,19,0.00
2013-8-6,101.3,87.3,77.5,77.0,74.2,69.0,94,69,39,29.90,29.76,16,7,21,0.00
2013-8-7,104.0,88.2,78.9,77.0,73.6,66.0,91,66,29,29.87,29.72,17,7,18,0.00
2013-8-8,103.0,87.4,76.5,77.0,72.7,65.0,95,67,31,29.85,29.71,11,6,20,0.00
2013-8-9,102.0,86.5,73.2,77.0,72.2,67.0,97,67,34,29.90,29.77,9,3,13,0.00
2013-8-10,98.0,83.7,75.2,79.0,74.9,72.0,95,77,44,29.96,29.86,14,3,21,0.12
2013-8-11,95.0,80.2,73.3,79.0,74.3,70.0,97,84,49,30.01,29.91,15,1,29,0.30
2013-8-12,97.9,84.3,73.0,78.0,73.9,71.0,98,75,42,30.01,29.86,12,3,14,0.01
2013-8-13,101.1,87.9,77.4,78.0,73.3,66.0,96,67,34,29.97,29.79,10,5,16,0.00
2013-8-14,102.7,83.9,76.9,77.0,73.9,69.0,92,74,33,29.92,29.77,12,4,20,0.00
2013-8-15,92.1,82.2,74.6,75.0,73.0,71.0,94,75,53,29.95,29.82,10,2,13,0.00
2013-8-16,98.0,83.2,73.7,76.0,72.5,68.0,95,73,42,29.94,29.79,9,2,16,0.00
2013-8-17,93.6,80.5,69.8,70.0,64.8,57.0,95,64,30,29.97,29.83,12,3,17,0.00
2013-8-18,95.5,81.1,63.8,71.0,62.1,58.0,90,56,29,29.97,29.87,16,2,18,0.00
2013-8-19,97.0,81.7,65.8,75.0,65.6,61.0,94,62,34,29.99,29.83,9,2,12,0.00
2013-8-20,92.5,80.6,67.8,75.0,69.0,65.0,95,70,43,29.96,29.88,13,2,17,0.00
2013-8-21,92.8,80.5,69.2,77.0,71.2,67.0,95,75,49,30.02,29.90,11,2,23,0.00
2013-8-22,97.4,83.8,70.0,77.0,72.6,68.0,97,72,42,30.01,29.84,10,3,15,0.00
2013-8-23,99.1,85.1,71.2,77.0,71.6,68.0,96,67,38,29.96,29.79,7,1,14,0.00
2013-8-24,96.9,84.6,73.0,80.0,72.5,68.0,93,69,44,29.96,29.84,14,2,26,0.04
2013-8-25,90.9,81.5,73.6,75.0,73.0,71.0,93,76,53,30.01,29.93,13,4,19,0.00
2013-8-26,83.3,76.8,73.9,76.0,73.6,72.0,97,90,71,30.05,29.99,13,4,22,0.29
2013-8-27,88.4,77.3,72.9,78.0,73.6,72.0,98,89,62,30.07,29.97,12,2,17,0.00
2013-8-28,94.9,82.5,70.3,77.0,71.4,69.0,98,73,45,30.04,29.91,6,1,11,0.00
2013-8-29,99.8,86.0,72.8,77.0,71.4,63.0,96,66,31,30.02,29.85,7,2,13,0.00
2013-8-30,102.2,87.1,74.7,76.0,71.9,66.0,94,64,33,29.95,29.78,10,3,18,0.00
2013-8-31,100.3,86.5,74.7,75.0,72.8,70.0,94,67,39,29.88,29.73,9,4,16,0.00
2013-9-1,100.0,86.1,73.2,76.0,71.9,67.0,94,66,35,29.86,29.72,8,3,13,0.00
2013-9-2,100.2,85.8,73.8,78.0,72.6,65.0,96,69,33,29.91,29.75,13,3,17,0.00
2013-9-3,102.2,85.2,72.8,75.0,72.0,67.0,95,68,33,29.92,29.77,7,2,14,0.00
2013-9-4,101.6,86.8,74.2,77.0,72.4,69.0,96,66,35,29.97,29.83,11,2,15,0.00
2013-9-5,97.6,83.2,71.9,76.0,72.4,70.0,94,72,41,30.02,29.89,13,3,23,0.00
2013-9-6,96.1,82.5,70.6,76.0,72.1,67.0,96,74,41,30.02,29.87,12,2,18,0.00
2013-9-7,96.0,79.2,70.8,76.0,73.0,69.0,97,83,44,29.96,29.86,12,2,24,0.23
2013-9-8,89.4,78.2,71.7,78.0,73.1,71.0,98,85,61,29.93,29.81,9,2,19,0.04
2013-9-9,94.5,77.1,69.4,76.0,72.3,68.0,98,87,47,29.93,29.85,14,2,20,0.27
2013-9-10,93.0,80.6,71.2,77.0,72.1,65.0,98,78,42,30.00,29.91,13,4,16,0.01
2013-9-11,94.3,81.6,71.6,76.0,72.6,69.0,97,77,43,30.03,29.89,9,2,22,0.21
2013-9-12,93.4,81.2,70.2,77.0,71.2,67.0,97,74,43,29.98,29.82,9,2,13,0.01
2013-9-13,96.1,82.7,68.0,72.0,68.0,64.0,97,65,35,29.89,29.72,10,2,16,0.00
2013-9-14,94.9,82.6,72.7,75.0,71.2,68.0,90,70,45,29.86,29.74,11,2,15,0.00
2013-9-15,93.5,82.6,73.0,76.0,72.2,69.0,96,73,46,29.93,29.84,13,3,21,0.00
2013-9-16,94.3,81.8,74.1,77.0,73.2,69.0,96,77,46,29.98,29.85,12,3,22,0.00
2013-9-17,95.2,82.8,72.8,78.0,72.3,68.0,96,73,43,29.98,29.84,12,3,23,0.00
2013-9-18,97.2,83.0,70.7,78.0,71.9,68.0,97,72,41,29.94,29.79,12,3,16,0.00
2013-9-19,95.6,81.4,72.7,77.0,74.4,71.0,96,81,49,29.88,29.75,12,4,26,0.08
2013-9-20,79.6,76.2,72.0,79.0,75.4,71.0,98,97,94,29.81,29.67,12,2,23,1.98
2013-9-21,80.8,73.4,68.3,71.0,68.5,64.0,98,86,63,29.83,29.73,16,4,21,0.01
2013-9-22,83.9,72.8,62.6,64.0,58.5,51.0,85,64,34,29.82,29.69,11,3,15,0.00
2013-9-23,87.7,76.0,64.5,72.0,65.5,59.0,91,71,55,29.77,29.67,7,1,11,0.00
2013-9-24,93.4,79.3,67.2,73.0,68.0,62.0,97,72,37,29.83,29.72,8,2,14,0.00
2013-9-25,95.9,79.2,63.2,70.0,63.8,59.0,97,65,30,29.83,29.70,6,1,8,0.00
2013-9-26,93.4,78.7,63.2,73.0,65.8,62.0,96,68,39,29.84,29.75,13,3,14,0.00
2013-9-27,92.2,81.5,72.3,77.0,73.8,67.0,94,78,56,29.87,29.76,16,4,20,0.01
2013-9-28,92.0,81.8,77.5,80.0,76.5,75.0,96,85,60,29.91,29.78,13,4,17,0.84
2013-9-29,79.4,75.6,70.4,77.0,73.2,69.0,97,92,80,29.95,29.85,6,1,11,0.12
2013-9-30,90.2,76.8,69.8,73.0,68.2,60.0,97,78,36,29.87,29.73,4,1,8,0.00
2013-10-1,91.1,79.1,70.1,79.0,74.2,69.0,98,86,62,29.86,29.77,6,2,16,0.00
2013-10-2,91.1,78.4,72.5,78.0,73.5,71.0,98,86,54,29.90,29.80,9,3,22,0.05
2013-10-3,88.6,79.5,73.2,78.0,74.1,71.0,98,85,58,29.89,29.77,8,2,15,0.12
2013-10-4,90.6,79.5,70.8,76.0,72.3,70.0,98,80,55,29.87,29.77,9,2,16,0.00
2013-10-5,88.9,76.8,63.6,77.0,68.5,53.0,98,78,50,29.96,29.78,13,2,18,0.00
2013-10-6,78.9,65.1,52.7,58.0,49.7,39.0,93,62,25,30.07,29.95,12,3,17,0.23
2013-10-7,80.9,62.5,45.9,56.0,47.0,41.0,97,65,25,30.12,29.98,10,1,13,0.00
2013-10-8,82.3,64.5,46.9,57.0,49.3,45.0,97,64,28,30.06,29.92,9,1,10,0.00
2013-10-9,83.5,68.7,50.7,63.0,57.5,49.0,97,70,44,30.02,29.90,8,2,13,0.00
2013-10-10,86.1,72.9,57.6,68.0,63.4,56.0,97,74,49,30.00,29.84,10,2,14,0.00
2013-10-11,88.3,76.8,67.7,75.0,70.9,65.0,93,82,63,29.88,29.78,14,4,17,0.00
2013-10-12,88.6,78.2,73.0,79.0,74.8,70.0,97,89,68,29.97,29.84,8,2,16,0.54
2013-10-13,76.0,72.5,67.9,74.0,71.5,67.0,99,96,93,30.11,29.95,9,3,20,2.19
2013-10-14,83.2,75.7,71.1,75.0,71.4,70.0,98,87,67,30.04,29.88,11,3,16,0.00
2013-10-15,85.0,76.4,69.6,76.0,71.5,69.0,98,85,64,29.93,29.80,10,2,13,0.00
2013-10-16,71.0,60.6,58.9,69.0,59.5,57.0,97,96,92,30.01,29.88,8,3,13,0.47
2013-10-17,72.5,62.6,55.0,58.0,56.0,54.0,96,80,55,30.07,29.93,8,2,13,0.00
2013-10-18,72.4,63.3,53.7,65.0,59.4,52.0,97,88,70,29.96,29.84,10,2,13,1.14
2013-10-19,66.3,58.3,47.4,62.0,51.2,44.0,98,79,45,30.14,29.94,11,4,18,0.11
2013-10-20,73.8,57.5,41.2,59.0,50.4,40.0,98,79,49,30.08,29.88,8,2,12,0.00
2013-10-21,79.5,68.2,57.0,68.0,63.1,55.0,97,85,64,29.97,29.83,7,2,14,0.01
2013-10-22,72.9,62.9,51.2,64.0,54.5,48.0,95,77,42,30.08,29.96,11,3,15,0.00
2013-10-23,80.1,61.1,46.4,57.0,50.8,45.0,97,74,33,30.13,30.03,5,1,9,0.00
2013-10-24,80.5,64.0,48.0,58.0,53.0,47.0,96,72,38,30.19,30.08,9,1,9,0.00
2013-10-25,76.2,63.5,50.6,63.0,57.2,50.0,97,81,59,30.29,30.17,9,2,13,0.00
2013-10-26,81.1,67.6,54.3,66.0,60.5,52.0,93,79,58,30.19,30.02,12,3,16,0.00
2013-10-27,74.0,67.0,60.7,67.0,63.9,59.0,98,90,76,30.07,29.95,14,2,20,1.23
2013-10-28,83.1,72.0,63.2,73.0,67.2,62.0,96,85,66,30.05,29.93,11,3,14,0.00
2013-10-29,83.2,75.2,69.4,73.0,69.6,67.0,94,83,65,30.03,29.93,13,5,19,0.00
2013-10-30,84.6,76.9,71.8,78.0,73.9,70.0,98,90,76,29.99,29.76,14,6,21,1.07
2013-10-31,80.7,70.8,53.9,75.0,62.9,48.0,98,80,33,29.85,29.69,14,4,24,1.09
2013-11-1,79.3,63.9,48.3,64.0,54.4,47.0,98,74,46,29.97,29.76,11,2,15,0.00
2013-11-2,71.9,61.8,47.6,51.0,46.7,39.0,89,60,31,30.21,29.97,15,3,17,0.00
2013-11-3,70.4,55.7,39.6,55.0,47.1,38.0,97,76,43,30.19,30.01,10,2,15,0.00
2013-11-4,69.9,63.2,55.2,66.0,60.3,51.0,97,90,81,30.04,29.93,10,3,14,0.45
2013-11-5,72.9,69.3,66.2,71.0,68.1,65.0,98,96,91,29.99,29.89,13,4,13,0.25
2013-11-6,71.5,63.8,51.5,71.0,61.4,47.0,98,91,82,30.27,29.92,12,4,19,0.04
2013-11-7,63.8,53.9,45.6,47.0,43.5,41.0,88,70,44,30.40,30.26,14,4,16,0.00
2013-11-8,65.3,56.2,48.9,50.0,45.0,41.0,87,68,42,30.35,30.16,8,2,17,0.00
2013-11-9,69.0,59.6,52.8,58.0,53.4,47.0,91,80,67,30.17,30.08,7,1,9,0.00
2013-11-10,70.5,60.4,50.6,57.0,53.3,48.0,92,79,50,30.26,30.15,7,2,9,0.00
2013-11-11,72.8,58.1,46.5,57.0,52.2,45.0,97,82,58,30.24,30.10,6,1,10,0.00
2013-11-12,62.8,53.0,44.9,57.0,48.4,34.0,97,85,67,30.57,30.20,14,5,22,0.00
2013-11-13,53.5,42.2,32.7,35.0,31.3,26.0,91,68,35,30.62,30.39,11,3,13,0.00
2013-11-14,61.3,47.6,30.7,53.0,42.3,29.0,96,83,65,30.39,30.04,9,2,11,0.00
2013-11-15,77.5,64.0,53.1,64.0,58.3,51.0,93,83,61,30.04,29.83,7,2,13,0.00
2013-11-16,80.4,71.0,61.2,73.0,67.8,60.0,98,90,76,29.89,29.71,14,5,20,0.00
2013-11-17,86.2,77.4,70.9,75.0,72.1,69.0,95,84,66,29.88,29.73,15,4,18,0.00
2013-11-18,74.5,69.7,61.7,71.0,65.2,50.0,98,87,53,30.07,29.87,10,2,11,0.00
2013-11-19,69.8,61.1,51.7,51.0,47.2,44.0,88,62,45,30.10,29.96,10,3,15,0.00
2013-11-20,70.5,61.9,49.2,66.0,56.6,46.0,96,83,68,30.00,29.87,12,4,15,0.16
2013-11-21,81.4,73.5,67.6,75.0,71.7,67.0,98,94,79,30.00,29.89,10,5,17,0.24
2013-11-22,74.0,48.3,38.7,73.0,46.8,37.0,97,94,87,30.33,29.99,14,6,22,0.17
2013-11-23,46.6,42.4,39.0,44.0,40.8,38.0,96,93,82,30.40,30.30,17,7,22,0.01
2013-11-24,46.0,41.3,37.3,41.0,35.7,32.0,93,81,66,30.43,30.30,14,6,17,0.13
2013-11-25,40.4,39.2,37.6,40.0,38.2,36.0,97,96,92,30.30,30.05,9,4,17,0.88
2013-11-26,45.2,40.6,38.2,41.0,37.9,35.0,96,90,78,30.30,30.04,13,4,19,0.02
2013-11-27,49.1,39.5,30.3,35.0,29.4,25.0,94,69,41,30.46,30.30,15,3,16,0.00
2013-11-28,57.6,41.3,28.7,42.0,35.1,27.0,96,81,52,30.47,30.32,5,1,11,0.00
2013-11-29,62.1,46.8,33.3,47.0,40.2,32.0,97,80,55,30.49,30.33,6,1,10,0.00
2013-11-30,69.6,55.5,39.0,58.0,49.7,38.0,96,82,63,30.37,30.16,7,2,14,0.00
2013-12-1,72.1,62.0,53.3,63.0,58.5,51.0,97,88,71,30.18,29.90,11,3,17,0.00
2013-12-2,79.6,66.3,58.5,62.0,58.6,54.0,97,79,41,29.89,29.62,9,3,14,0.00
2013-12-3,80.2,66.2,56.4,65.0,60.9,56.0,98,85,51,29.67,29.54,10,3,14,0.00
2013-12-4,76.4,69.8,64.0,70.0,66.8,63.0,97,90,77,29.75,29.64,17,5,20,0.00
2013-12-5,71.9,50.2,35.8,70.0,46.6,32.0,95,87,81,30.05,29.73,13,6,19,0.00
2013-12-6,38.0,34.7,31.2,36.0,32.5,28.0,96,91,86,30.39,30.00,21,6,21,0.05
2013-12-7,31.7,30.5,29.5,29.0,27.9,26.0,96,90,86,30.42,30.27,12,4,17,0.00
2013-12-8,41.9,36.9,30.2,41.0,35.6,29.0,97,95,91,30.28,30.05,5,1,7,0.02
2013-12-9,43.0,40.6,35.3,43.0,39.9,33.0,98,97,90,30.33,30.07,13,4,17,0.06
2013-12-10,43.4,34.8,28.9,32.0,28.4,26.0,93,78,59,30.48,30.33,13,4,16,0.00
2013-12-11,49.2,40.4,28.7,39.0,35.1,27.0,95,82,65,30.52,30.32,4,1,10,0.00
2013-12-12,51.8,41.7,33.8,38.0,35.5,32.0,94,79,56,30.56,30.34,7,2,12,0.00
2013-12-13,53.4,47.4,37.6,50.0,44.4,35.0,96,89,82,30.33,29.84,6,1,15,0.03
2013-12-14,53.9,47.3,37.9,51.0,44.2,34.0,98,89,78,30.29,29.85,16,5,23,0.00
2013-12-15,56.4,41.5,28.9,37.0,33.1,27.0,94,75,44,30.39,30.25,11,2,11,0.00
2013-12-16,65.9,44.6,28.1,43.0,34.3,27.0,97,72,33,30.33,30.17,7,1,12,0.00
2013-12-17,71.2,49.3,30.8,49.0,39.6,29.0,96,73,37,30.32,30.18,8,1,10,0.00
2013-12-18,69.9,52.0,32.8,56.0,44.7,31.0,98,79,45,30.29,30.06,11,2,15,0.00
2013-12-19,77.1,65.5,53.5,67.0,61.0,51.0,93,86,67,30.06,29.79,19,6,32,0.00
2013-12-20,75.3,71.8,68.7,71.0,68.9,67.0,94,90,82,29.82,29.63,17,8,24,0.01
2013-12-21,73.3,62.2,49.5,70.0,60.6,49.0,98,94,87,29.80,29.49,20,4,30,0.44
2013-12-22,52.7,47.9,36.3,52.0,44.0,33.0,99,87,69,30.35,29.79,12,3,18,0.00
2013-12-23,50.7,39.1,30.8,36.0,32.9,29.0,93,79,56,30.52,30.34,9,3,15,0.00
2013-12-24,58.0,41.3,25.7,38.0,31.6,25.0,97,72,34,30.54,30.29,10,2,12,0.00
2013-12-25,54.7,47.4,37.1,50.0,44.7,35.0,97,90,80,30.35,30.25,8,2,14,0.01
2013-12-26,54.6,48.7,40.6,50.0,45.3,39.0,98,88,76,30.40,30.28,8,2,11,0.00
2013-12-27,58.4,49.9,43.8,46.0,43.5,41.0,91,79,62,30.41,30.29,8,2,11,0.00
2013-12-28,60.1,47.7,37.9,44.0,37.1,28.0,96,71,31,30.30,30.01,5,1,7,0.00
2013-12-29,65.8,47.7,35.2,51.0,41.4,33.0,95,80,58,30.22,29.96,12,2,18,0.00
2013-12-30,41.7,37.5,35.0,33.0,31.5,30.0,86,79,69,30.39,30.20,10,4,16,0.00
2013-12-31,47.7,41.6,37.0,39.0,33.6,31.0,88,74,58,30.46,30.25,9,1,10,0.00
2014-1-1,62.1,52.0,41.9,54.0,47.2,38.0,89,84,73,30.25,29.99,8,2,12,0.00
2014-1-2,56.0,41.6,34.3,52.0,31.0,26.0,90,67,47,30.45,30.05,19,6,25,0.00